Location: Équennes
(49.7375°N, 1.9622°E)
Time: 00:43:10
(UTC+00:00)

Timation 2 Rocket - Pass Details

Date: 28 January 2023
Orbit: 905 x 1076 km, 70.0° (Epoch: 31 March)

Event Time Altitude Azimuth Distance (km) Brightness Sun altitude
Rises 18:49:58 0° 327° (NNW) 3,587 7.4 -20.9°
Reaches altitude 10° 18:52:29 10° 324° (NW) 2,658 6.7 -21.3°
Maximum altitude 18:58:32 61° 246° (WSW) 1,087 4.4 -22.3°
Drops below altitude 10° 19:04:49 10° 168° (SSE) 2,754 6.2 -23.3°
Sets 19:07:27 0° 164° (SSE) 3,726 6.9 -23.7°
